Simultaneous Nadir Overpasses (SNOs) Predictions

Prediction of SNOs between AQUA and METOP-A Satellite Orbit:

Table of predicted SNOs for the next 14.0 days since TLE Epoch: 9/28/2019
Index Date (AQUA) Time (AQUA) Lat,Lon (AQUA) SZA (AQUA ) Date (METOP-A) Time (METOP-A) Lat,Lon (METOP-A) SZA (METOP-A ) Distance(km) Time Diff (sec)
1 09/28/2019 13:02:58 75.47, -25.50 77.55 09/28/2019 13:02:03 75.45, -25.49 77.54 1.93 55
2 09/28/2019 13:52:24 -75.49, 142.08 102.42 09/28/2019 13:52:44 -75.49, 141.95 102.42 3.67 20
3 10/01/2019 08:37:14 75.48, 40.91 78.64 10/01/2019 08:36:27 75.47, 40.92 78.64 0.90 47
4 10/01/2019 09:26:41 -75.54,-151.62 101.28 10/01/2019 09:27:08 -75.51,-151.64 101.31 3.51 27
5 10/04/2019 04:11:29 75.49, 107.31 79.74 10/04/2019 04:10:50 75.48, 107.32 79.74 0.79 39
6 10/04/2019 05:00:56 -75.54, -85.20 100.19 10/04/2019 05:01:31 -75.52, -85.24 100.22 2.53 35
7 10/06/2019 23:45:45 75.51, 173.69 80.84 10/06/2019 23:45:14 75.50, 173.71 80.83 1.59 31
8 10/07/2019 00:35:12 -75.55, -18.79 99.11 10/07/2019 00:35:55 -75.54, -18.84 99.13 2.44 43
9 10/09/2019 19:20:01 75.53,-119.94 81.93 10/09/2019 19:19:38 75.50,-119.91 81.90 3.28 23
10 10/09/2019 20:09:28 -75.57, 47.60 98.02 10/09/2019 20:10:19 -75.55, 47.55 98.05 3.00 51




NCC Satellite Simultaneous Nadir Overpasses (SNOs) Prediction Service
